Notices

What's New in latest Release from April 7th, 2021:

- Updated Glossary, including Speed of Maximum Gust, and Total Hourly Precipitation

- Updated national and regional climate services offices contacts and prices information

- Addition of station inventory lists for 1981-2010, 1971-2000, and 1961-1990 Normals.

If you haven't already, please take our survey and provide feedback about our website: https://eccc.sondage-survey.ca/f/LanguageSelection.aspx?s=442ca660-fcf1-47c0-95a9-59707d6fd709

Hourly Data Report for September 01, 2019

TORONTO CITY
ONTARIO
Current Station Operator: ECCC - MSC

43°40'00.000" N
79°24'00.000" W
112.50 m
6158355
71508
XTO

Download Data

Hourly Data (September 2019)
Hourly Data Report for September 1, 2019
TIME
LST
Temp Definition
°C
Dew Point Definition
°C
Rel Hum Definition
%
Precip. Amount Definition
mm

Wind Dir Definition
10's deg

Wind Spd Definition
km/h
Visibility Definition
km
Stn Press Definition
kPa
Hmdx Definition


Wind Chill Definition


Weather Definition


00:00 18.2 9.0 55 0.0       101.24     LegendNANA
01:00 17.4 9.6 60 0.0       101.24     LegendNANA
02:00 17.2 9.0 58 0.0       101.22     LegendNANA
03:00 16.8 8.9 60 0.0       101.21     LegendNANA
04:00 16.3 8.8 61 0.0       101.20     LegendNANA
05:00 16.4 8.8 61 0.0       101.15     LegendNANA
06:00 16.3 9.0 62 0.0       101.17     LegendNANA
07:00 16.1 11.2 73 0.0       101.11     LegendNANA
08:00 17.6 12.5 72 0.0       101.09     LegendNANA
09:00 18.3 12.6 69 0.0       101.06     LegendNANA
10:00 19.3 12.3 64 0.0       101.02     LegendNANA
11:00 19.1 12.0 63 0.0       101.01     LegendNANA
12:00 19.0 12.4 65 0.0       100.94     LegendNANA
13:00 18.8 13.5 72 0.0       100.95     LegendNANA
14:00 18.3 14.2 77 0.0       100.87     LegendNANA
15:00 18.3 13.7 74 0.0       100.76     LegendNANA
16:00 18.1 13.4 74 0.0       100.70     LegendNANA
17:00 18.2 13.7 75 0.0       100.63     LegendNANA
18:00 18.2 14.0 77 0.0       100.62     LegendNANA
19:00 18.2 14.3 78 0.0       100.59     LegendNANA
20:00 18.7 15.0 79 0.0       100.52     LegendNANA
21:00 18.6 15.6 83 0.0       100.46     LegendNANA
22:00 18.6 15.5 82 0.0       100.45     LegendNANA
23:00 18.5 15.7 84 0.0       100.40     LegendNANA

Notes on Data Quality.

Legend

  • E = Estimated
  • M = Missing
  • NA = Not Available*
  • [empty] = Indicates an unobserved value
Date modified: